Simultaneous Nadir Overpasses (SNOs) Predictions

Prediction of SNOs between METOP-B and NOAA-19 Satellite Orbit:

Table of predicted SNOs for the next 14.0 days since TLE Epoch: 11/18/2012
Index Date (METOP-B) Time (METOP-B) METOP-B Lat,Lon Date (NOAA-19) Time (NOAA-19) NOAA-19 Lat,Lon Distance(km) Time Diff (sec)
1 11/26/2012 00:09:17 73.55, 171.40 11/26/2012 00:08:06 73.57, 169.74 52.30 71
2 11/26/2012 01:00:06 -73.18, -22.10 11/26/2012 00:59:01 -73.17, -22.10 1.56 65
3 11/26/2012 01:50:45 73.18, 145.23 11/26/2012 01:50:02 73.18, 145.12 3.35 43
4 11/26/2012 02:41:29 -73.12, -47.59 11/26/2012 02:41:05 -73.12, -47.52 2.41 24
5 11/26/2012 03:32:08 73.11, 119.74 11/26/2012 03:32:06 73.13, 119.71 2.89 2
6 11/26/2012 04:22:51 -73.10, -72.97 11/26/2012 04:23:09 -73.08, -72.94 2.35 18
7 11/26/2012 05:13:30 73.09, 94.36 11/26/2012 05:14:10 73.09, 94.29 2.18 40
8 11/26/2012 06:04:14 -73.03, -98.45 11/26/2012 06:05:13 -73.03, -98.35 3.25 59
9 11/26/2012 06:54:58 72.77, 68.33 11/26/2012 06:56:09 72.79, 69.41 35.74 71




NCC Satellite Simultaneous Nadir Overpasses (SNOs) Prediction Service
